www.pogodaiklimat.ru

Погода и климат >> Архив погоды >> Индия >> Западная Бенгалия >> Каннинг


ПОГОДА в Каннинге

  • Прогноз погоды в Каннинге
  • Монитор погоды в Каннинге

АРХИВ ПОГОДЫ в Каннинге

Время (UTC), дата Ветер
(напр.,м/с)
 
Видим.   Явления Облачность Т
(С)
Тd
(С)
f
(%)
Тe
(С)
Тes
(С)
Комфортность P
(гПа)
Po
(гПа)
Тmin
(С)
Tmax
(С)
R
(мм)
R24
(мм)
S
(см)
03 12.08 штиль 0 4000 м 9/6 300 м
[Sc diur, vesp As op]
+28.6 +27.8 95 +47 +49 опасность
перегрева
1000.8 1000.3 +26.0 10
06 12.08 штиль 0 4000 м {дождь} 9/6 300 м
[Sc diur, vesp As op]
+29.4 +27.5 90 +48 +52 опасность
перегрева
1000.4 999.9 5
09 12.08 штиль 0 4000 м 10/8 300 м
[Cb calv As op]
+29.0 +28.6 98 +50 +50 опасность
перегрева
998.0 997.5 5
12 12.08 штиль 0 4000 м {дождь} 9/6 300 м
[Sc diur, vesp As op]
+28.4 +27.9 97 +47 +47 опасность
перегрева
997.4 996.9 +31.0 15
03 13.08 штиль 0 4000 м 9/6 300 м
[Sc diur, vesp As op]
+28.4 +27.9 97 +47 +49 опасность
перегрева
999.0 998.5 +26.4 20
06 13.08 штиль 0 4000 м 8/5 300 м
[Sc diur, vesp As op]
+29.6 +27.4 88 +48 +55 опасность
перегрева
998.6 998.1
09 13.08 ЮВ 2 4000 м слаб. дождь 10/8 300 м
[Cb calv As op]
+28.0 +27.4 97 +45 +46 опасность
перегрева
998.4 997.9 5
12 13.08 штиль 0 4000 м {дождь} 10/8 300 м
[Cb calv As op]
+28.4 +27.3 94 +45 +45 опасность
перегрева
998.2 997.7 +30.4 9
03 14.08 штиль 0 4000 м 8/5 300 м
[Sc diur, vesp As op]
+29.4 +28.9 97 +51 +55 опасность
перегрева
1003.7 1003.2 +25.6 25
06 14.08 штиль 0 4000 м 8/5 300 м
[Sc diur, vesp As op]
+30.6 +28.4 88 +52 +59 опасность
перегрева
1003.5 1003.0
09 14.08 штиль 0 4000 м 9/6 300 м
[Sc diur, vesp As op]
+32.0 +27.9 79 +52 +55 опасность
перегрева
1003.2 1002.8
12 14.08 штиль 0 4000 м 9/6 300 м
[Sc diur, vesp As op]
+30.0 +28.6 92 +51 +51 опасность
перегрева
1003.0 1002.5 +32.4
03 15.08 штиль 0 4000 м слаб. дождь 10/8 300 м
[Cb calv As op]
+25.4 +25.4 100 +37 +37 очень
душно
1006.7 1006.2 +24.2 23
06 15.08 штиль 0 4000 м {дождь} 10/8 300 м
[Cb calv As op]
+26.0 +26.0 100 +39 +40 очень
душно
1006.5 1006.0 10
09 15.08 штиль 0 4000 м {дождь} 10/8 300 м
[Cb calv As op]
+27.0 +25.6 92 +40 +40 очень
душно
1005.8 1005.3 12
12 15.08 штиль 0 4000 м {дождь} 10/8 300 м
[Cb calv As op]
+26.0 +26.0 100 +39 +39 очень
душно
1005.5 1005.0 +27.4 12
03 16.08 штиль 0 4000 м 6/6 300 м
[Sc diur, vesp]
+30.0 +28.6 92 +51 +57 опасность
перегрева
1004.8 1004.3 +25.0 14
06 16.08 штиль 0 4000 м 6/6 300 м
[Sc diur, vesp]
+31.6 +28.1 82 +52 +64 опасность
перегрева
1004.6 1004.1
09 16.08 штиль 0 4000 м 9/6 300 м
[Sc diur, vesp As op]
+32.0 +28.5 82 +54 +57 опасность
перегрева
1002.3 1001.9
12 16.08 штиль 0 4000 м 9/6 300 м
[Sc diur, vesp As op]
+30.0 +29.2 95 +53 +53 опасность
перегрева
1001.5 1001.0 +34.0
03 17.08 штиль 0 4000 м слаб. дождь 10/8 300 м
[Sc diur, vesp As op]
+25.4 +25.4 100 +37 +37 очень
душно
1003.6 1003.1 +24.4 76
06 17.08 З 1 4000 м слаб. дождь 10/8 300 м
[Sc diur, vesp As op]
+26.4 +26.4 100 +40 +41 очень
душно
1003.5 1003.0 25
09 17.08 штиль 0 4000 м в посл. час дождь 10/8 300 м
[Sc diur, vesp As op]
+25.6 +25.6 100 +37 +38 очень
душно
1002.4 1001.9 50
12 17.08 штиль 0 4000 м {дождь} 10/8 300 м
[Sc diur, vesp As op]
+26.0 +25.4 97 +38 +38 очень
душно
1001.6 1001.1 +26.6 50
03 18.08 штиль 0 4000 м 9/6 300 м
[Sc diur, vesp As op]
+27.0 +26.2 95 +41 +43 опасность
перегрева
1005.5 1005.0 +25.0 50
06 18.08 штиль 0 4000 м 9/6 300 м
[Sc diur, vesp As op]
+28.0 +25.7 87 +41 +46 опасность
перегрева
1005.3 1004.8
09 18.08 штиль 0 4000 м 8/5 300 м
[Sc diur, vesp As op]
+30.0 +25.8 78 +45 +49 опасность
перегрева
1004.4 1003.9
12 18.08 штиль 0 4000 м 8/5 300 м
[Sc diur, vesp As op]
+28.0 +26.6 92 +43 +43 опасность
перегрева
1004.0 1003.5 +31.0

 

Местоположение метеостанции Каннинг (Западная Бенгалия, Индия): широта 22.25 долгота 88.67 высота над уровнем моря 4 м.

В архиве по умолчанию представлена погода в Каннинге за последнюю неделю. Архивные данные за месяц целиком и за предыдущие месяцы, начиная с января 2011 года, Вы можете получить, выбрав интересующий диапазон дат из раскрывающегося списка и нажав кнопку "Ввод!".


*Определитесь, кто Вы:
робот инопланетянин человек

Внимание! Время в таблицах - всемирное. Для получения местного времени необходимо прибавить поправку, которая равна 5.5 ч.

Смотрите также архив погоды в соседних городах и на ближайших метеорологических станциях:

Погода в Колкате (Западная Бенгалия, Индия) (47 км)
Погода в Бейсирхэте (Западная Бенгалия, Индия) (49 км)
Погода в Даймонд Харбор (Западная Бенгалия, Индия) (49 км)
Погода в Колкате (Западная Бенгалия, Индия) (50 км)
Погода в Саткхире (Бангладеш) (67 км)
Погода в Халдии (Западная Бенгалия, Индия) (69 км)
Погода в Улуберии (Западная Бенгалия, Индия) (79 км)
Погода в Багати (Западная Бенгалия, Индия) (87 км)
Погода в Монгле (Бангладеш) (94 км)
Погода в Кхулне (Бангладеш) (106 км)

Пояснения к столбцам:

Ветер - указаны скорость ветра в м/с - средняя за 10 мин, порывы в срок и между сроками (в фигурных скобках) и направление, откуда дует ветер: С - северный, СВ - северо-восточный, В - восточный, ЮВ - юго-восточный, Ю - южный, ЮЗ - юго-западный, З - западный, СЗ - северо-западный.
Видимость - горизонтальная дальность видимости в метрах или километрах. При видимости от 1 до 10 км при отсутствии осадков обычно наблюдается дымка, при ухудшении видимости до 1 км и менее - туман. В сухую погоду видимость может ухудшаться дымом, пылью или мглою.
Явления - указаны атмосферные явления, наблюдавшиеся в срок или в последний час перед сроком; фигурными скобками обозначены явления, наблюдавшиеся между сроками (за 1-3 часа до срока); квадратными скобками обозначены град или гололедные отложения с указанием их диаметра в мм.
Облачность - указаны через наклонную черту общая и нижняя облачность в баллах и высота нижней границы облаков в метрах; квадратными скобками обозначены формы облаков: Ci - перистые, Cs - перисто-слоистые, Cc - перисто-кучевые, Ac - высококучевые, As - высокослоистые, Sc - слоисто-кучевые, Ns - слоисто-дождевые, Cu - кучевые, Cb - кучево-дождевые. Подробнее классификацию облаков см. в Атласе облаков (PDF).
T - Температура воздуха - температура, измеренная на высоте 2 м над землей.
Td - Температура точки росы - температура, при понижении до которой содержащийся в воздухе водяной пар достигнет насыщения.
f - Относительная влажность воздуха - влажноcть воздуха, измеренная на высоте 2 м над землей.
Te - Эффективная температура - температура, которую ощущает одетый по сезону человек в тени. Характеристика душности погоды. При расчете учитывается влияние влажности воздуха и скорости ветра на теплоощущения человека.
Tes - Эффективная температура на солнце - температура, которую ощущает человек, с поправкой на солнечный нагрев. Характеристика знойности погоды. Зависит от высоты солнца над горизонтом, облачности и скорости ветра. Ночью, в пасмурную погоду, а также при ветре 12 м/с и более поправка равна нулю.
P - Атмосферное давление - приведенное к уровню моря атмосферное давление.
Po - Атмосферное давление - измеренное на уровне метеостанции атмосферное давление.
Tmin - Минимальная температура - минимум температуры воздуха на высоте 2 м над землей.
Tmax - Максимальная температура - максимум температуры воздуха на высоте 2 м над землей.
R - Количество осадков - Количество выпавших осадков за период времени, мм. При наведении курсора мыши на число - период времени, за который выпало указанное количество осадков.
R24 - Количество осадков - Количество выпавших осадков за 24 часа, мм.
S - Снежный покров - Высота снежного покрова, см. При наведении курсора мыши на число - состояние снежного покрова и степень покрытия местности в баллах.